Weather History for HESN - May, 2013

Change the Weather History Date:

Thursday, May 2, 2013

  Actual Average Record
Temperature  
Mean Temperature 89 °F -  
Max Temperature 103 °F 100 °F 107 °F (2007)
Min Temperature 75 °F 75 °F 68 °F (2008)
Cooling Degree Days 24    
Growing Degree Days 39 (Base 50)    
Moisture  
Dew Point 25 °F    
Average Humidity 10    
Maximum Humidity 17    
Minimum Humidity 4    
Precipitation  
Precipitation 0.00 in 0.00 in - ()
Sea Level Pressure  
Sea Level Pressure 29.70 in    
Wind  
Wind Speed 4 mph ()    
Max Wind Speed 10 mph    
Max Gust Speed -    
Visibility 6.0 miles    
Events      
Averages and records for this station are not official NWS values.
T = Trace of Precipitation, MM = Missing Value Source: Averaged Metar Reports

Daily Weather History Graph

Daily Weather History Graph

Search for Another Location

Airport or City:

Trip Planner

Search our weather history database for the weather conditions in past years. The results will help you decide how hot, cold, wet, or windy it might be!

Date:

Astronomy

May. 02, 2013 Rise Set
Actual Time 5:13 AM EET 6:17 PM EET
Civil Twilight 4:49 AM EET 6:41 PM EET
Nautical Twilight 4:21 AM EET 7:10 PM EET
Astronomical Twilight 3:52 AM EET 7:39 PM EET
Moon No Moon Rise 11:32 AM EET (5/2)
Length of Visible Light 13h 51m
Length of Day
13h 04m
Waning Gibbous, 51% of the Moon is Illuminated
May 2
Waning Gibbous
May 2
Last Quarter
May 10
New
May 18
First Quarter
May 25
Full

Hourly Weather History & Observations

Time (EET) Temp. Dew Point Humidity Pressure Visibility Wind Dir Wind Speed Gust Speed Precip Events Conditions
12:00 AM 84.2 °F 17.6 °F 8% 29.71 in - NNW 5.8 mph - N/A   Clear
1:00 AM 84.2 °F 24.8 °F 11% 29.71 in - NNW 5.8 mph - N/A   Clear
2:00 AM 80 °F 21 °F 5% 29.68 in 6 mi NNW 3.5 mph - -  
2:00 AM 80.6 °F 21.2 °F 11% 29.68 in - NNW 3.5 mph - N/A   Clear
3:00 AM 78.8 °F 21.2 °F 12% 29.68 in - NW 3.5 mph - N/A   Clear
4:00 AM 77.0 °F 26.6 °F 16% 29.71 in - North 4.6 mph - N/A   Clear
5:00 AM 75.2 °F 26.6 °F 17% 29.71 in - North 5.8 mph - N/A   Clear
6:00 AM 75.2 °F 24.8 °F 15% 29.74 in - North 5.8 mph - N/A   Clear
7:00 AM 80.6 °F 30.2 °F 16% 29.74 in - NNE 3.5 mph - N/A   Clear
8:00 AM 85 °F 33 °F 8% 29.73 in 6 mi North 4.6 mph - -  
8:00 AM 86.0 °F 32.0 °F 14% 29.74 in - North 4.6 mph - N/A   Clear
9:00 AM 91.4 °F 32.0 °F 12% 29.77 in - NNE 6.9 mph - N/A   Clear
10:00 AM 95.0 °F 30.2 °F 10% 29.74 in - NNE 4.6 mph - N/A   Clear
11:00 AM 98.6 °F 26.6 °F 8% 29.74 in - East 4.6 mph - N/A   Clear
12:00 PM 100.4 °F 24.8 °F 7% 29.71 in - NNE 3.5 mph - N/A   Clear
1:00 PM 100.4 °F 24.8 °F 7% 29.71 in - East 6.9 mph - N/A   Clear
2:00 PM 102 °F 22 °F 4% 29.65 in 6 mi East 9.2 mph - -  
2:00 PM 102.2 °F 23.0 °F 6% 29.68 in - East 9.2 mph - N/A   Clear
3:00 PM 100.4 °F 21.2 °F 6% 29.68 in - East 8.1 mph - N/A   Clear
4:00 PM 102.2 °F 23.0 °F 6% 29.65 in - South 10.4 mph - N/A   Clear
5:00 PM 100.4 °F 24.8 °F 7% 29.65 in - SE 5.8 mph - N/A   Clear
6:00 PM 96.8 °F 26.6 °F 8% 29.68 in - ESE 4.6 mph - N/A   Clear
7:00 PM 93.2 °F 28.4 °F 10% 29.68 in - SSE 3.5 mph - N/A   Clear
8:00 PM 93 °F 26 °F 4% 29.66 in 6 mi NNE 1.2 mph - -  
8:00 PM 93.2 °F 26.6 °F 9% 29.68 in - NNE 1.2 mph - N/A   Clear
9:00 PM 89.6 °F 32.0 °F 13% 29.71 in - ENE 3.5 mph - N/A   Clear
10:00 PM 89.6 °F 21.2 °F 8% 29.71 in - NNW 3.5 mph - N/A   Clear
11:00 PM 87.8 °F 19.4 °F 8% 29.71 in - NW 2.3 mph - N/A   Clear